| time (UTC) | temp C | wind direction | speed KPH | gust KPH | rain 1hr cm | rain 24hr cm | rain mn cm | humidity % | barometer mb |
| 20260505235103 | 21 | 68 | 3.2 | 9.7 | 0.00 | 0.00 | 0.00 | 94 | 1005.5 |
| 20260505234638 | 21 | 68 | 3.2 | 9.7 | 0.00 | 0.00 | 0.00 | 94 | 1005.5 |
| 20260505234048 | 21 | 68 | 3.2 | 6.4 | 0.00 | 0.00 | 0.00 | 94 | 1005.2 |
| 20260505233028 | 22 | 68 | 3.2 | 9.7 | 0.00 | 0.00 | 0.00 | 94 | 1005.6 |
| 20260505232517 | 22 | 45 | 4.8 | 9.7 | 0.00 | 0.00 | 0.00 | 94 | 1005.5 |
| 20260505232008 | 22 | 68 | 6.4 | 9.7 | 0.00 | 0.00 | 0.00 | 94 | 1005.3 |
| 20260505231450 | 22 | 90 | 6.4 | 9.7 | 0.00 | 0.00 | 0.00 | 94 | 1005.4 |
| 20260505225409 | 21 | 68 | 6.4 | 11.3 | 0.00 | 0.00 | 0.00 | 93 | 1005.2 |
| 20260505223840 | 22 | 90 | 3.2 | 6.4 | 0.00 | 0.00 | 0.00 | 91 | 1005.3 |
| 20260505223330 | 22 | 68 | 3.2 | 6.4 | 0.00 | 0.00 | 0.00 | 89 | 1005.3 |
| 20260505222306 | 22 | 68 | 3.2 | 6.4 | 0.00 | 0.00 | 0.00 | 90 | 1005.1 |
| 20260505221809 | 22 | 90 | 4.8 | 6.4 | 0.00 | 0.00 | 0.00 | 91 | 1005.1 |
| 20260505221435 | 23 | 23 | 1.6 | 6.4 | 0.00 | 0.00 | 0.00 | 86 | 1005.6 |
| 20260505221248 | 22 | 68 | 3.2 | 6.4 | 0.00 | 0.00 | 0.00 | 91 | 1005.0 |
| 20260505220745 | 22 | 90 | 3.2 | 6.4 | 0.00 | 0.00 | 0.00 | 91 | 1005.0 |
| 20260505220234 | 22 | 45 | 4.8 | 6.4 | 0.00 | 0.00 | 0.00 | 90 | 1005.1 |
| 20260505214702 | 22 | 90 | 0.0 | 0.0 | 0.00 | 0.00 | 0.00 | 88 | 1005.3 |
| 20260505213643 | 23 | 90 | 0.0 | 0.0 | 0.00 | 0.00 | 0.00 | 88 | 1005.0 |
| 20260505213123 | 23 | 113 | 0.0 | 3.2 | 0.00 | 0.00 | 0.00 | 87 | 1005.0 |
| 20260505212627 | 23 | 90 | 0.0 | 6.4 | 0.00 | 0.00 | 0.00 | 87 | 1004.9 |
| 20260505212104 | 23 | 113 | 1.6 | 6.4 | 0.00 | 0.00 | 0.00 | 86 | 1004.9 |
| 20260505211603 | 23 | 90 | 3.2 | 6.4 | 0.00 | 0.00 | 0.00 | 86 | 1005.0 |
| 20260505210540 | 23 | 90 | 3.2 | 6.4 | 0.00 | 0.00 | 0.00 | 86 | 1004.9 |
| 20260505205522 | 23 | 90 | 0.0 | 3.2 | 0.00 | 0.00 | 0.00 | 84 | 1005.1 |
| 20260505205005 | 23 | 68 | 0.0 | 3.2 | 0.00 | 0.00 | 0.00 | 84 | 1005.2 |
| 20260505204503 | 23 | 45 | 1.6 | 6.4 | 0.00 | 0.00 | 0.00 | 83 | 1005.0 |
| 20260505203944 | 23 | 45 | 1.6 | 6.4 | 0.00 | 0.00 | 0.00 | 83 | 1005.0 |
| 20260505202928 | 24 | 23 | 6.4 | 11.3 | 0.00 | 0.00 | 0.00 | 82 | 1004.8 |
| 20260505202649 | 23 | 45 | 6.4 | 17.7 | 0.00 | 0.00 | 0.00 | 82 | 1006.8 |
| 20260505202425 | 24 | 23 | 6.4 | 11.3 | 0.00 | 0.00 | 0.00 | 82 | 1004.7 |
| 20260505201902 | 24 | 45 | 6.4 | 11.3 | 0.00 | 0.00 | 0.00 | 81 | 1004.7 |
| 20260505201631 | 23 | 0 | 6.4 | 14.5 | 0.00 | 0.00 | 0.00 | 83 | 1006.8 |
| 20260505201356 | 25 | 68 | 4.8 | 11.3 | 0.00 | 0.00 | 0.00 | 80 | 1004.7 |
| 20260505195825 | 25 | 45 | 3.2 | 9.7 | 0.00 | 0.00 | 0.00 | 80 | 1005.0 |
| 20260505195326 | 25 | 90 | 4.8 | 9.7 | 0.00 | 0.00 | 0.00 | 79 | 1005.0 |
| 20260505194802 | 25 | 23 | 3.2 | 6.4 | 0.00 | 0.00 | 0.00 | 78 | 1005.0 |
| 20260505194301 | 25 | 90 | 3.2 | 6.4 | 0.00 | 0.00 | 0.00 | 79 | 1005.0 |
| 20260505193744 | 25 | 68 | 3.2 | 6.4 | 0.00 | 0.00 | 0.00 | 78 | 1004.9 |
| 20260505193238 | 25 | 68 | 0.0 | 6.4 | 0.00 | 0.00 | 0.00 | 78 | 1005.1 |
| 20260505192724 | 25 | 45 | 3.2 | 6.4 | 0.00 | 0.00 | 0.00 | 78 | 1004.9 |
| 20260505192216 | 25 | 113 | 1.6 | 3.2 | 0.00 | 0.00 | 0.00 | 79 | 1004.8 |
| 20260505191200 | 25 | 113 | 1.6 | 6.4 | 0.00 | 0.00 | 0.00 | 80 | 1005.0 |
| 20260505190643 | 25 | 113 | 3.2 | 6.4 | 0.00 | 0.00 | 0.00 | 79 | 1005.1 |
| 20260505190140 | 25 | 45 | 1.6 | 6.4 | 0.00 | 0.00 | 0.00 | 80 | 1004.9 |
| 20260505185121 | 24 | 180 | 3.2 | 3.2 | 0.00 | 0.00 | 0.00 | 81 | 1005.2 |
| 20260505184059 | 24 | 225 | 0.0 | 0.0 | 0.00 | 0.00 | 0.00 | 83 | 1005.5 |
| 20260505183541 | 24 | 248 | 0.0 | 0.0 | 0.00 | 0.00 | 0.00 | 83 | 1005.6 |
| 20260505183512 | 21 | 22 | 12.9 | 17.7 | 0.00 | 0.00 | 0.00 | 89 | 1007.1 |
| 20260505183039 | 24 | 293 | 0.0 | 0.0 | 0.00 | 0.00 | 0.00 | 83 | 1005.6 |
| 20260505182526 | 24 | 45 | 0.0 | 0.0 | 0.00 | 0.00 | 0.00 | 82 | 1005.6 |
| 20260505182018 | 24 | 0 | 0.0 | 3.2 | 0.00 | 0.00 | 0.00 | 83 | 1005.6 |
| 20260505181458 | 23 | 68 | 0.0 | 6.4 | 0.00 | 0.00 | 0.00 | 84 | 1005.7 |
| 20260505180958 | 23 | 0 | 3.2 | 6.4 | 0.00 | 0.00 | 0.00 | 83 | 1005.6 |
| 20260505180442 | 23 | 23 | 4.8 | 6.4 | 0.00 | 0.00 | 0.00 | 84 | 1005.5 |
| 20260505175938 | 24 | 0 | 0.0 | 3.2 | 0.00 | 0.00 | 0.00 | 83 | 1005.3 |
| 20260505175421 | 24 | 45 | 1.6 | 3.2 | 0.00 | 0.00 | 0.00 | 83 | 1005.4 |
| 20260505174402 | 23 | 45 | 1.6 | 3.2 | 0.00 | 0.00 | 0.00 | 85 | 1005.5 |
| 20260505173850 | 23 | 45 | 0.0 | 6.4 | 0.00 | 0.00 | 0.00 | 85 | 1005.4 |
| 20260505172837 | 23 | 22 | 3.2 | 6.4 | 0.00 | 0.00 | 0.00 | 85 | 1005.6 |
| 20260505171813 | 23 | 0 | 3.2 | 6.4 | 0.00 | 0.00 | 0.00 | 86 | 1005.7 |
| 20260505171255 | 23 | 45 | 3.2 | 6.4 | 0.00 | 0.00 | 0.00 | 87 | 1005.8 |
| 20260505170755 | 23 | 0 | 6.4 | 6.4 | 0.00 | 0.00 | 0.00 | 86 | 1005.7 |
| 20260505165220 | 22 | 45 | 4.8 | 6.4 | 0.00 | 0.00 | 0.00 | 90 | 1006.2 |
| 20260505164922 | 18 | 0 | 8.0 | 11.3 | 0.00 | 0.00 | 0.00 | 96 | 1007.1 |
| 20260505164157 | 22 | 22 | 6.4 | 9.7 | 0.00 | 0.00 | 0.00 | 91 | 1006.1 |
| 20260505163653 | 22 | 22 | 6.4 | 11.3 | 0.00 | 0.00 | 0.00 | 90 | 1006.3 |
| 20260505163139 | 22 | 22 | 6.4 | 12.9 | 0.00 | 0.00 | 0.00 | 89 | 1006.2 |
| 20260505162638 | 23 | 45 | 8.0 | 14.5 | 0.00 | 0.00 | 0.00 | 84 | 1006.4 |
| 20260505162113 | 23 | 22 | 6.4 | 14.5 | 0.00 | 0.00 | 0.00 | 83 | 1006.2 |
| 20260505161057 | 23 | 22 | 6.4 | 14.5 | 0.00 | 0.00 | 0.00 | 85 | 1006.7 |
| 20260505160551 | 23 | 45 | 9.7 | 14.5 | 0.00 | 0.00 | 0.00 | 84 | 1006.4 |
| 20260505152935 | 23 | 45 | 8.0 | 14.5 | 0.00 | 0.00 | 0.00 | 84 | 1006.7 |
| 20260505152428 | 23 | 22 | 11.3 | 17.7 | 0.00 | 0.00 | 0.00 | 84 | 1006.7 |
| 20260505151917 | 23 | 22 | 12.9 | 17.7 | 0.00 | 0.00 | 0.00 | 84 | 1006.9 |
| 20260505151411 | 23 | 45 | 11.3 | 17.7 | 0.00 | 0.00 | 0.00 | 83 | 1006.6 |
| 20260505150900 | 23 | 0 | 11.3 | 20.9 | 0.00 | 0.00 | 0.00 | 82 | 1006.8 |
| 20260505150351 | 23 | 22 | 9.7 | 20.9 | 0.00 | 0.00 | 0.00 | 84 | 1006.8 |
| 20260505140145 | 21 | 22 | 12.9 | 17.7 | 0.00 | 0.00 | 0.00 | 88 | 1007.0 |
| 20260505124924 | 18 | 22 | 8.0 | 11.3 | 0.00 | 0.00 | 0.00 | 94 | 1007.2 |
| 20260505124410 | 18 | 0 | 6.4 | 12.9 | 0.00 | 0.00 | 0.00 | 95 | 1006.9 |
| 20260505123905 | 18 | 23 | 6.4 | 12.9 | 0.00 | 0.00 | 0.00 | 95 | 1007.2 |
| 20260505123353 | 18 | 0 | 6.4 | 11.3 | 0.00 | 0.00 | 0.00 | 95 | 1007.4 |
| 20260505121823 | 18 | 23 | 8.0 | 11.3 | 0.00 | 0.00 | 0.00 | 95 | 1007.1 |
| 20260505121315 | 18 | 23 | 6.4 | 12.9 | 0.00 | 0.00 | 0.00 | 95 | 1007.1 |
| 20260505115759 | 18 | 0 | 8.0 | 11.3 | 0.00 | 0.00 | 0.00 | 96 | 1006.8 |
| 20260505115231 | 18 | 0 | 6.4 | 11.3 | 0.00 | 0.00 | 0.00 | 96 | 1006.7 |
| 20260505114721 | 18 | 23 | 4.8 | 11.3 | 0.00 | 0.00 | 0.00 | 97 | 1006.6 |
| 20260505114214 | 17 | 0 | 6.4 | 9.7 | 0.00 | 0.00 | 0.00 | 97 | 1006.7 |
| 20260505113703 | 17 | 23 | 6.4 | 9.7 | 0.00 | 0.00 | 0.00 | 97 | 1006.5 |
| 20260505112649 | 17 | 0 | 4.8 | 6.4 | 0.00 | 0.00 | 0.00 | 97 | 1006.6 |
| 20260505112142 | 17 | 45 | 3.2 | 6.4 | 0.00 | 0.00 | 0.00 | 97 | 1006.2 |
| 20260505111626 | 17 | 0 | 3.2 | 6.4 | 0.00 | 0.00 | 0.00 | 97 | 1006.4 |
| 20260505111107 | 17 | 23 | 4.8 | 6.4 | 0.00 | 0.00 | 0.00 | 97 | 1006.6 |
| 20260505110605 | 17 | 0 | 6.4 | 9.7 | 0.00 | 0.00 | 0.00 | 97 | 1006.7 |
| 20260505110351 | 13 | 45 | 0.0 | 3.2 | 0.00 | 0.00 | 0.00 | 96 | 1005.4 |
| 20260505101924 | 16 | 23 | 3.2 | 3.2 | 0.00 | 0.00 | 0.00 | 98 | 1006.3 |
| 20260505101609 | 14 | 22 | 0.0 | 0.0 | 0.00 | 0.00 | 0.00 | 94 | 1005.4 |
| 20260505101426 | 16 | 23 | 3.2 | 3.2 | 0.00 | 0.00 | 0.00 | 98 | 1006.1 |
| 20260505100402 | 16 | 23 | 1.6 | 3.2 | 0.00 | 0.00 | 0.00 | 98 | 1006.0 |
| 20260505095939 | 16 | 0 | 3.2 | 3.2 | 0.00 | 0.00 | 0.00 | 98 | 1005.8 |
| 20260505095339 | 16 | 0 | 3.2 | 3.2 | 0.00 | 0.00 | 0.00 | 98 | 1005.9 |
| 20260505094826 | 16 | 23 | 3.2 | 3.2 | 0.00 | 0.00 | 0.00 | 98 | 1005.4 |
| 20260505094323 | 16 | 23 | 3.2 | 3.2 | 0.00 | 0.00 | 0.00 | 98 | 1005.8 |
| 20260505093808 | 16 | 45 | 3.2 | 3.2 | 0.00 | 0.00 | 0.00 | 98 | 1005.8 |
| 20260505093301 | 16 | 45 | 3.2 | 3.2 | 0.00 | 0.00 | 0.00 | 97 | 1005.7 |
| 20260505092749 | 16 | 23 | 3.2 | 3.2 | 0.00 | 0.00 | 0.00 | 97 | 1005.6 |
| 20260505091728 | 15 | 23 | 0.0 | 0.0 | 0.00 | 0.00 | 0.00 | 97 | 1005.8 |
| 20260505091334 | 15 | 45 | 3.2 | 3.2 | 0.00 | 0.00 | 0.00 | 93 | 1005.5 |
| 20260505091217 | 15 | 45 | 0.0 | 0.0 | 0.00 | 0.00 | 0.00 | 97 | 1005.7 |
| 20260505090705 | 15 | 23 | 0.0 | 0.0 | 0.00 | 0.00 | 0.00 | 97 | 1005.6 |
| 20260505090157 | 15 | 45 | 0.0 | 3.2 | 0.00 | 0.00 | 0.00 | 97 | 1005.5 |
| 20260505085136 | 15 | 45 | 3.2 | 3.2 | 0.00 | 0.00 | 0.00 | 97 | 1005.4 |
| 20260505085100 | 15 | 22 | 3.2 | 6.4 | 0.00 | 0.00 | 0.00 | 92 | 1005.4 |
| 20260505084629 | 15 | 45 | 3.2 | 3.2 | 0.00 | 0.00 | 0.00 | 97 | 1005.5 |
| 20260505084156 | 15 | 22 | 3.2 | 6.4 | 0.00 | 0.00 | 0.00 | 92 | 1005.5 |
| 20260505084123 | 15 | 45 | 0.0 | 3.2 | 0.00 | 0.00 | 0.00 | 97 | 1005.6 |
| 20260505083606 | 15 | 45 | 1.6 | 3.2 | 0.00 | 0.00 | 0.00 | 97 | 1005.6 |
| 20260505083057 | 14 | 90 | 0.0 | 0.0 | 0.00 | 0.00 | 0.00 | 97 | 1005.7 |
| 20260505082541 | 13 | 45 | 0.0 | 0.0 | 0.00 | 0.00 | 0.00 | 96 | 1005.4 |
| 20260505081529 | 13 | 45 | 0.0 | 3.2 | 0.00 | 0.00 | 0.00 | 96 | 1005.6 |
| 20260505081017 | 13 | 23 | 0.0 | 0.0 | 0.00 | 0.00 | 0.00 | 95 | 1005.5 |
| 20260505080514 | 13 | 0 | 0.0 | 0.0 | 0.00 | 0.00 | 0.00 | 95 | 1005.3 |
| 20260505074937 | 14 | 22 | 0.0 | 6.4 | 0.00 | 0.00 | 0.00 | 94 | 1005.7 |
| 20260505074423 | 15 | 22 | 3.2 | 6.4 | 0.00 | 0.00 | 0.00 | 93 | 1005.7 |
| 20260505073921 | 15 | 22 | 3.2 | 6.4 | 0.00 | 0.00 | 0.00 | 93 | 1005.5 |
| 20260505072900 | 15 | 22 | 3.2 | 6.4 | 0.00 | 0.00 | 0.00 | 92 | 1005.3 |
| 20260505071323 | 15 | 0 | 3.2 | 6.4 | 0.00 | 0.00 | 0.00 | 91 | 1005.4 |
| 20260505070815 | 15 | 0 | 4.8 | 6.4 | 0.00 | 0.00 | 0.00 | 91 | 1005.3 |
| 20260505070301 | 16 | 0 | 4.8 | 6.4 | 0.00 | 0.00 | 0.00 | 90 | 1005.2 |
| 20260505065803 | 16 | 23 | 6.4 | 6.4 | 0.00 | 0.00 | 0.00 | 90 | 1005.2 |
| 20260505065236 | 16 | 23 | 3.2 | 6.4 | 0.00 | 0.00 | 0.00 | 90 | 1005.3 |
| 20260505064739 | 15 | 23 | 3.2 | 6.4 | 0.00 | 0.00 | 0.00 | 89 | 1005.3 |
| 20260505064218 | 15 | 23 | 4.8 | 6.4 | 0.00 | 0.00 | 0.00 | 89 | 1005.5 |
| 20260505063714 | 15 | 23 | 4.8 | 6.4 | 0.00 | 0.00 | 0.00 | 89 | 1005.6 |
| 20260505063201 | 15 | 23 | 3.2 | 6.4 | 0.00 | 0.00 | 0.00 | 89 | 1005.7 |
| 20260505062653 | 15 | 23 | 3.2 | 3.2 | 0.00 | 0.00 | 0.00 | 88 | 1005.5 |
| 20260505061636 | 15 | 23 | 3.2 | 6.4 | 0.00 | 0.00 | 0.00 | 88 | 1005.8 |
| 20260505061124 | 15 | 23 | 3.2 | 6.4 | 0.00 | 0.00 | 0.00 | 87 | 1005.8 |
| 20260505060855 | 15 | 0 | 3.2 | 6.4 | 0.00 | 0.00 | 0.00 | 88 | 1005.7 |
| 20260505055705 | 15 | 0 | 3.2 | 6.4 | 0.00 | 0.00 | 0.00 | 89 | 1005.7 |
| 20260505055159 | 13 | 0 | 3.2 | 6.4 | 0.00 | 0.00 | 0.00 | 89 | 1005.5 |
| 20260505054144 | 13 | 23 | 3.2 | 6.4 | 0.00 | 0.00 | 0.00 | 88 | 1005.4 |
| 20260505053626 | 13 | 23 | 4.8 | 6.4 | 0.00 | 0.00 | 0.00 | 88 | 1005.1 |
| 20260505053121 | 13 | 23 | 4.8 | 6.4 | 0.00 | 0.00 | 0.00 | 88 | 1005.6 |
| 20260505052601 | 13 | 23 | 4.8 | 6.4 | 0.00 | 0.00 | 0.00 | 88 | 1005.4 |
| 20260505052057 | 13 | 23 | 3.2 | 6.4 | 0.00 | 0.00 | 0.00 | 88 | 1005.4 |
| 20260505051539 | 13 | 23 | 3.2 | 6.4 | 0.00 | 0.00 | 0.00 | 88 | 1005.4 |
| 20260505051052 | 14 | 23 | 3.2 | 6.4 | 0.00 | 0.00 | 0.00 | 87 | 1005.8 |
| 20260505050525 | 14 | 23 | 3.2 | 6.4 | 0.00 | 0.00 | 0.00 | 86 | 1005.7 |
| 20260505050358 | 12 | 45 | 4.8 | 6.4 | 0.00 | 0.00 | 0.00 | 84 | 1005.1 |
| 20260505041344 | 14 | 45 | 3.2 | 3.2 | 0.00 | 0.00 | 0.00 | 86 | 1006.0 |
| 20260505040832 | 14 | 23 | 3.2 | 6.4 | 0.00 | 0.00 | 0.00 | 86 | 1005.9 |
| 20260505040329 | 14 | 0 | 3.2 | 6.4 | 0.00 | 0.00 | 0.00 | 85 | 1006.0 |
| 20260505035817 | 14 | 23 | 3.2 | 3.2 | 0.00 | 0.00 | 0.00 | 86 | 1005.8 |
| 20260505035304 | 14 | 23 | 3.2 | 3.2 | 0.00 | 0.00 | 0.00 | 86 | 1006.1 |
| 20260505034802 | 14 | 23 | 3.2 | 3.2 | 0.00 | 0.00 | 0.00 | 86 | 1005.9 |
| 20260505034237 | 14 | 45 | 3.2 | 6.4 | 0.00 | 0.00 | 0.00 | 85 | 1006.0 |
| 20260505033740 | 14 | 23 | 3.2 | 6.4 | 0.00 | 0.00 | 0.00 | 85 | 1005.9 |
| 20260505033223 | 14 | 23 | 3.2 | 6.4 | 0.00 | 0.00 | 0.00 | 85 | 1005.9 |
| 20260505032724 | 14 | 23 | 3.2 | 6.4 | 0.00 | 0.00 | 0.00 | 85 | 1005.9 |
| 20260505032200 | 14 | 23 | 3.2 | 6.4 | 0.00 | 0.00 | 0.00 | 85 | 1005.9 |
| 20260505031656 | 14 | 23 | 3.2 | 6.4 | 0.00 | 0.00 | 0.00 | 84 | 1005.9 |
| 20260505030637 | 14 | 23 | 3.2 | 6.4 | 0.00 | 0.00 | 0.00 | 85 | 1005.6 |
| 20260505030124 | 14 | 23 | 6.4 | 6.4 | 0.00 | 0.00 | 0.00 | 85 | 1005.7 |
| 20260505025622 | 13 | 45 | 4.8 | 6.4 | 0.00 | 0.00 | 0.00 | 85 | 1005.5 |
| 20260505025059 | 13 | 23 | 3.2 | 6.4 | 0.00 | 0.00 | 0.00 | 85 | 1005.6 |
| 20260505024550 | 13 | 45 | 4.8 | 6.4 | 0.00 | 0.00 | 0.00 | 85 | 1005.6 |
| 20260505024040 | 13 | 23 | 4.8 | 6.4 | 0.00 | 0.00 | 0.00 | 85 | 1005.6 |
| 20260505023532 | 13 | 45 | 6.4 | 6.4 | 0.00 | 0.00 | 0.00 | 85 | 1005.6 |
| 20260505023025 | 13 | 45 | 6.4 | 6.4 | 0.00 | 0.00 | 0.00 | 84 | 1005.7 |
| 20260505022936 | 16 | 23 | 3.2 | 6.4 | 0.00 | 0.00 | 0.00 | 68 | 1003.4 |
| 20260505022516 | 13 | 23 | 4.8 | 6.4 | 0.00 | 0.00 | 0.00 | 84 | 1005.5 |
| 20260505021508 | 13 | 45 | 4.8 | 6.4 | 0.00 | 0.00 | 0.00 | 84 | 1005.6 |
| 20260505020937 | 12 | 45 | 4.8 | 6.4 | 0.00 | 0.00 | 0.00 | 85 | 1005.5 |
| 20260505015802 | 19 | 23 | 3.2 | 9.7 | 0.00 | 0.00 | 0.00 | 57 | 1003.3 |
| 20260505014856 | 12 | 45 | 4.8 | 6.4 | 0.00 | 0.00 | 0.00 | 86 | 1005.3 |
| 20260505014355 | 12 | 45 | 3.2 | 6.4 | 0.00 | 0.00 | 0.00 | 87 | 1005.4 |
| 20260505013837 | 12 | 45 | 3.2 | 6.4 | 0.00 | 0.00 | 0.00 | 86 | 1005.2 |
| 20260505013336 | 12 | 45 | 3.2 | 6.4 | 0.00 | 0.00 | 0.00 | 86 | 1005.2 |
| 20260505012833 | 12 | 45 | 3.2 | 6.4 | 0.00 | 0.00 | 0.00 | 86 | 1005.2 |
| 20260505012313 | 12 | 45 | 3.2 | 6.4 | 0.00 | 0.00 | 0.00 | 86 | 1005.1 |
| 20260505011758 | 12 | 45 | 3.2 | 6.4 | 0.00 | 0.00 | 0.00 | 86 | 1005.2 |
| 20260505010859 | 23 | 0 | 6.4 | 17.7 | 0.00 | 0.00 | 0.00 | 46 | 1003.7 |
| 20260505010737 | 12 | 23 | 3.2 | 6.4 | 0.00 | 0.00 | 0.00 | 85 | 1005.1 |
| 20260505010233 | 12 | 45 | 4.8 | 6.4 | 0.00 | 0.00 | 0.00 | 85 | 1005.1 |
| 20260505005712 | 12 | 45 | 4.8 | 6.4 | 0.00 | 0.00 | 0.00 | 85 | 1005.1 |
| 20260505005208 | 12 | 45 | 4.8 | 6.4 | 0.00 | 0.00 | 0.00 | 85 | 1005.0 |
| 20260505004656 | 12 | 45 | 4.8 | 6.4 | 0.00 | 0.00 | 0.00 | 85 | 1004.9 |
| 20260505004148 | 12 | 45 | 4.8 | 6.4 | 0.00 | 0.00 | 0.00 | 85 | 1005.0 |
| 20260505003128 | 12 | 45 | 3.2 | 6.4 | 0.00 | 0.00 | 0.00 | 85 | 1004.9 |
| 20260505002613 | 11 | 45 | 4.8 | 6.4 | 0.00 | 0.00 | 0.00 | 85 | 1005.0 |
| 20260505002118 | 11 | 45 | 3.2 | 6.4 | 0.00 | 0.00 | 0.00 | 85 | 1005.1 |
| 20260505001812 | 23 | 22 | 11.3 | 17.7 | 0.00 | 0.00 | 0.00 | 44 | 1003.5 |
| 20260505000028 | 11 | 45 | 4.8 | 6.4 | 0.00 | 0.00 | 0.00 | 84 | 1004.9 |